Location: Forst
(46.9333°N, 15.4333°E)
Time: 13:13:14
(UTC+00:00)

CZ-2D R/B - Pass Details

Date: 01 December 2020
Orbit: 520 x 538 km, 97.4° (Epoch: 26 January)

Event Time Altitude Azimuth Distance (km) Brightness Sun altitude
Rises 16:14:48 0° 132° (SE) 2,653 6.5 -10.5°
Reaches altitude 10° 16:17:14 10° 116° (ESE) 1,773 5.5 -10.9°
Maximum altitude 16:20:10 22° 66° (ENE) 1,211 4.4 -11.4°
Drops below altitude 10° 16:23:09 10° 15° (NNE) 1,793 5.6 -11.9°
Sets 16:25:37 0° 0° (N) 2,692 6.6 -12.3°
